Вернуться в каталог

KINEIS-4D

АктивенСвязьSSO
NORAD 63302·PAYLOAD·🇫🇷 France

Запущен Mar 18, 2025 с Rocket Lab Launch Complex 1

Loading…

Ближайшие Пролёты (ближайшие 24 часа)

TLE

СвежийSource: Space-Track

Эпоха: Sep 14, 2026, 13:37 UTC

1 63302U 25056C   26257.56744409  .00001163  00000-0  19142-3 0  9994
2 63302  97.9112  19.2328 0003566  67.6566 292.5020 14.72352232 80285

Отслеживайте KINEIS-4D в реальном времени с AllMySat

Download on the App Store